sat.trackr.live / text

‹ back to catalog

KUIPER-00020

NORAD 63735 · 2025-088M

PAYLOAD ACTIVE UNKNOWN

§ Identity

Operator
Country
US
Launch date
2025-04-28
Launch site
AFETR
Launch vehicle
Mass (kg)
RCS (m²)

External: N2YO · Heavens-Above · Gunter

§ Orbital elements

Epoch: 2026-09-21T10:06:41.834592Z

Period
97.30 min
Inclination
51.9040°
Eccentricity
0.0000305
Mean motion
14.79931572 rev/d
Perigee alt
629.3 km
Apogee alt
629.8 km
Semi-major
7,007.7 km
B*
1.0678e-4
RAAN
317.5890°
Arg perigee
61.8458°
Mean anomaly
298.2535°
Rev number
7,664

§ Raw data

KUIPER-000201 63735U 25088M   26264.42131753  .00000593  00000+0  10678-3 0  99942 63735  51.9040 317.5890 0000305  61.8458 298.2535 14.79931572 76643

JSON: /api/v1/satellites/63735 · /tle

For live sub-satellite position, see the globe view (requires WebGL).

§ Visibility from observer

Set your observer location to see the next 7 days of passes ≥ 10°. The values pass through the URL so the page stays shareable.

No JS? Fill the form by hand. The geolocation button needs JavaScript.